Weather History for KMZH - July, 2013

Change the Weather History Date:

Wednesday, July 3, 2013

  Actual Average Record
Temperature  
Mean Temperature 63 °F -  
Max Temperature 82 °F 80 °F 98 °F (1949)
Min Temperature 44 °F 52 °F 40 °F (1969)
Degree Days  
Heating Degree Days 2    
Growing Degree Days 13 (Base 50)    
Moisture  
Dew Point 48 °F    
Average Humidity 59    
Maximum Humidity 94    
Minimum Humidity 32    
Precipitation  
Precipitation 0.00 in - - ()
Sea Level Pressure  
Sea Level Pressure 30.02 in    
Wind  
Wind Speed 2 mph (ENE)    
Max Wind Speed 5 mph    
Max Gust Speed -    
Visibility 10 miles    
Events      
Averages and records for this station are not official NWS values.
T = Trace of Precipitation, MM = Missing Value Source: NWS Daily Summary

Daily Weather History Graph

Daily Weather History Graph

Search for Another Location

Airport or City:

Trip Planner

Search our weather history database for the weather conditions in past years. The results will help you decide how hot, cold, wet, or windy it might be!

Date:

Astronomy

Jul. 03, 2013 Rise Set
Actual Time 5:24 AM CDT 9:06 PM CDT
Civil Twilight 4:45 AM CDT 9:45 PM CDT
Nautical Twilight 3:53 AM CDT 10:37 PM CDT
Astronomical Twilight 2:40 AM CDT 11:48 PM CDT
Moon 2:09 AM CDT (7/3) 5:11 PM CDT (7/3)
Length of Visible Light 16h 59m
Length of Day
15h 42m
Waning Crescent, 18% of the Moon is Illuminated
Jul 3
Waning Crescent
Jul 8
New
Jul 15
First Quarter
Jul 22
Full
Jul 29
Last Quarter

Hourly Weather History & Observations

Time (CDT) Temp. Dew Point Humidity Pressure Visibility Wind Dir Wind Speed Gust Speed Precip Events Conditions
12:08 AM 51.8 °F 41.0 °F 67% 30.09 in 10.0 mi NE 3.5 mph - N/A   Clear
12:28 AM 51.8 °F 41.0 °F 67% 30.09 in 10.0 mi NE 3.5 mph - N/A   Clear
12:48 AM 51.8 °F 41.0 °F 67% 30.09 in 10.0 mi NE 4.6 mph - N/A   Clear
1:08 AM 51.8 °F 42.8 °F 71% 30.08 in 10.0 mi NE 3.5 mph - N/A   Clear
1:28 AM 50.0 °F 41.0 °F 71% 30.08 in 10.0 mi NE 3.5 mph - N/A   Clear
1:48 AM 50.0 °F 41.0 °F 71% 30.08 in 10.0 mi NE 3.5 mph - N/A   Clear
2:08 AM 50.0 °F 41.0 °F 71% 30.08 in 10.0 mi NE 3.5 mph - N/A   Clear
2:28 AM 48.2 °F 41.0 °F 76% 30.07 in 10.0 mi NE 3.5 mph - N/A   Clear
2:48 AM 48.2 °F 41.0 °F 76% 30.07 in 10.0 mi NE 3.5 mph - N/A   Clear
3:08 AM 48.2 °F 41.0 °F 76% 30.07 in 10.0 mi NE 4.6 mph - N/A   Clear
3:28 AM 48.2 °F 41.0 °F 76% 30.07 in 10.0 mi NE 3.5 mph - N/A   Clear
3:48 AM 48.2 °F 41.0 °F 76% 30.07 in 10.0 mi Calm Calm - N/A   Clear
4:08 AM 46.4 °F 41.0 °F 81% 30.06 in 10.0 mi Calm Calm - N/A   Clear
4:28 AM 46.4 °F 42.8 °F 87% 30.06 in 10.0 mi Calm Calm - N/A   Clear
4:48 AM 46.4 °F 42.8 °F 87% 30.06 in 10.0 mi Calm Calm - N/A   Clear
5:08 AM 44.6 °F 42.8 °F 93% 30.06 in 10.0 mi Calm Calm - N/A   Clear
5:28 AM 44.6 °F 42.8 °F 93% 30.07 in 10.0 mi Calm Calm - N/A   Clear
5:48 AM 44.6 °F 42.8 °F 93% 30.07 in 10.0 mi Calm Calm - N/A   Clear
6:08 AM 46.4 °F 44.6 °F 93% 30.07 in 10.0 mi Calm Calm - N/A   Clear
6:28 AM 46.4 °F 44.6 °F 93% 30.07 in 10.0 mi Calm Calm - N/A   Clear
6:48 AM 50.0 °F 46.4 °F 87% 30.07 in 10.0 mi Calm Calm - N/A   Clear
7:08 AM 53.6 °F 44.6 °F 72% 30.07 in 10.0 mi Calm Calm - N/A   Clear
7:28 AM 53.6 °F 44.6 °F 72% 30.07 in 10.0 mi Calm Calm - N/A   Clear
7:48 AM 55.4 °F 46.4 °F 72% 30.07 in 10.0 mi Calm Calm - N/A   Clear
8:08 AM 59.0 °F 46.4 °F 63% 30.07 in 10.0 mi Calm Calm - N/A   Clear
8:28 AM 60.8 °F 48.2 °F 63% 30.07 in 10.0 mi Calm Calm - N/A   Clear
8:48 AM 62.6 °F 46.4 °F 55% 30.07 in 10.0 mi Calm Calm - N/A   Clear
9:08 AM 64.4 °F 46.4 °F 52% 30.07 in 10.0 mi Calm Calm - N/A   Clear
9:28 AM 68.0 °F 44.6 °F 43% 30.07 in 10.0 mi Calm Calm - N/A   Clear
9:48 AM 69.8 °F 46.4 °F 43% 30.06 in 10.0 mi Calm Calm - N/A   Clear
10:08 AM 69.8 °F 42.8 °F 38% 30.06 in 10.0 mi Calm Calm - N/A   Clear
10:28 AM 71.6 °F 46.4 °F 41% 30.06 in 10.0 mi Calm Calm - N/A   Clear
10:48 AM 73.4 °F 46.4 °F 38% 30.05 in 10.0 mi Calm Calm - N/A   Clear
11:08 AM 73.4 °F 48.2 °F 41% 30.05 in 10.0 mi Calm Calm - N/A   Clear
11:29 AM 75.2 °F 50.0 °F 41% 30.05 in 10.0 mi East 3.5 mph - N/A   Clear
11:48 AM 77.0 °F 51.8 °F 41% 30.04 in 10.0 mi Calm Calm - N/A   Clear
12:08 PM 77.0 °F 51.8 °F 41% 30.04 in 10.0 mi North 3.5 mph - N/A   Clear
12:28 PM 77.0 °F 51.8 °F 41% 30.04 in 10.0 mi Calm Calm - N/A   Clear
12:48 PM 77.0 °F 50.0 °F 39% 30.03 in 10.0 mi Calm Calm - N/A   Clear
1:08 PM 78.8 °F 51.8 °F 39% 30.02 in 10.0 mi Calm Calm - N/A   Clear
1:28 PM 78.8 °F 50.0 °F 36% 30.02 in 10.0 mi Calm Calm - N/A   Clear
1:48 PM 78.8 °F 50.0 °F 36% 30.02 in 10.0 mi Calm Calm - N/A   Clear
2:08 PM 78.8 °F 50.0 °F 36% 30.01 in 10.0 mi Calm Calm - N/A   Clear
2:28 PM 80.6 °F 50.0 °F 34% 30.00 in 10.0 mi SSW 4.6 mph - N/A   Clear
2:48 PM 80.6 °F 50.0 °F 34% 30.00 in 10.0 mi South 3.5 mph - N/A   Scattered Clouds
3:08 PM 80.6 °F 50.0 °F 34% 29.99 in 10.0 mi East 3.5 mph - N/A   Clear
3:28 PM 82.4 °F 50.0 °F 32% 29.99 in 10.0 mi ESE 4.6 mph - N/A   Clear
3:48 PM 82.4 °F 51.8 °F 35% 29.99 in 10.0 mi Calm Calm - N/A   Clear
4:08 PM 80.6 °F 51.8 °F 37% 29.98 in 10.0 mi SSW 4.6 mph - N/A   Clear
4:28 PM 80.6 °F 50.0 °F 34% 29.98 in 10.0 mi Calm Calm - N/A   Clear
4:48 PM 80.6 °F 51.8 °F 37% 29.98 in 10.0 mi Calm Calm - N/A   Scattered Clouds
5:08 PM 80.6 °F 50.0 °F 34% 29.98 in 10.0 mi Calm Calm - N/A   Scattered Clouds
5:28 PM 80.6 °F 50.0 °F 34% 29.97 in 10.0 mi SSE 3.5 mph - N/A   Scattered Clouds
5:48 PM 80.6 °F 50.0 °F 34% 29.97 in 10.0 mi SE 3.5 mph - N/A   Clear
6:08 PM 80.6 °F 51.8 °F 37% 29.96 in 10.0 mi Calm Calm - N/A   Scattered Clouds
6:28 PM 78.8 °F 50.0 °F 36% 29.96 in 10.0 mi Calm Calm - N/A   Clear
6:48 PM 80.6 °F 51.8 °F 37% 29.96 in 10.0 mi SE 4.6 mph - N/A   Scattered Clouds
7:08 PM 78.8 °F 51.8 °F 39% 29.95 in 10.0 mi SSE 3.5 mph - N/A   Scattered Clouds
7:28 PM 78.8 °F 51.8 °F 39% 29.95 in 10.0 mi Calm Calm - N/A   Clear
7:48 PM 77.0 °F 51.8 °F 41% 29.95 in 10.0 mi Calm Calm - N/A   Clear
8:08 PM 75.2 °F 53.6 °F 47% 29.95 in 10.0 mi Calm Calm - N/A   Clear
8:28 PM 71.6 °F 55.4 °F 57% 29.95 in 10.0 mi Calm Calm - N/A   Clear
8:48 PM 68.0 °F 55.4 °F 64% 29.95 in 10.0 mi Calm Calm - N/A   Clear
9:08 PM 64.4 °F 55.4 °F 73% 29.95 in 10.0 mi Calm Calm - N/A   Clear
9:28 PM 62.6 °F 59.0 °F 88% 29.95 in 10.0 mi Calm Calm - N/A   Scattered Clouds
9:48 PM 60.8 °F 59.0 °F 94% 29.96 in 10.0 mi Calm Calm - N/A   Scattered Clouds
10:08 PM 62.6 °F 57.2 °F 82% 29.96 in 10.0 mi ENE 3.5 mph - N/A   Clear
10:28 PM 60.8 °F 57.2 °F 88% 29.96 in 10.0 mi NNE 3.5 mph - N/A   Clear
10:48 PM 60.8 °F 55.4 °F 82% 29.96 in 10.0 mi NE 3.5 mph - N/A   Clear
11:08 PM 59.0 °F 51.8 °F 77% 29.96 in 10.0 mi NE 3.5 mph - N/A   Clear
11:28 PM 59.0 °F 50.0 °F 72% 29.96 in 10.0 mi NE 3.5 mph - N/A   Clear
11:48 PM 57.2 °F 50.0 °F 77% 29.96 in 10.0 mi NE 3.5 mph - N/A   Clear